Location: Shenandoah County Park
(38.9356°N, 78.4524°W)
Time: 05:44:35
(UTC-05:00)

N. Korean satellite - Pass Details

Date: 10 December 2021
Orbit: 446 x 491 km, 97.3° (Epoch: 19 January)

Event Time Altitude Azimuth Distance (km) Brightness Sun altitude
Rises 04:46:06 0° 27° (NNE) 2,454 10.4 -29.5°
Enters shadow 04:46:16 - 27° (NNE) 2,386 10.3 -29.4°
Exits shadow 04:49:13 14° 53° (NE) 1,343 9.3 -28.8°
Maximum altitude 04:51:09 22° 96° (E) 1,037 8.9 -28.5°
Drops below altitude 10° 04:53:49 10° 148° (SSE) 1,576 9.6 -28.0°
Sets 04:56:10 0° 165° (SSE) 2,448 10.4 -27.5°
